Weather History for Ponca City, OK

Change the Weather History Date:

Wednesday, January 2, 2013

  Actual Average Record
Temperature  
Mean Temperature 24 °F -  
Max Temperature 37 °F 42 °F 78 °F (1997)
Min Temperature 12 °F 24 °F 3 °F (2001)
Degree Days  
Heating Degree Days 40    
Moisture  
Dew Point 20 °F    
Average Humidity 79    
Maximum Humidity 91    
Minimum Humidity 59    
Precipitation  
Precipitation 0.00 in - - ()
Sea Level Pressure  
Sea Level Pressure 30.28 in    
Wind  
Wind Speed 3 mph (WSW)    
Max Wind Speed 12 mph    
Max Gust Speed -    
Visibility 8 miles    
Events      
Averages and records for this station are not official NWS values.
T = Trace of Precipitation, MM = Missing Value Source: NWS Daily Summary

Daily Weather History Graph

Daily Weather History Graph

Search for Another Location

Airport:

Trip Planner

Search our weather history database for the weather conditions in past years. The results will help you decide how hot, cold, wet, or windy it might be!

Date:

Astronomy

Jan. 02, 2013 Rise Set
Actual Time 7:41 AM CST 5:24 PM CST
Civil Twilight 7:12 AM CST 5:53 PM CST
Nautical Twilight 6:40 AM CST 6:25 PM CST
Astronomical Twilight 6:08 AM CST 6:56 PM CST
Moon 10:48 PM CST (1/2) 10:32 AM CST (1/2)
Length of Visible Light 10h 40m
Length of Day
9h 43m
Waning Gibbous, 75% of the Moon is Illuminated
Jan 2
Waning Gibbous
Jan 4
Last Quarter
Jan 11
New
Jan 18
First Quarter
Jan 26
Full

Hourly Weather History & Observations

Time (CST) Temp. Windchill Dew Point Humidity Pressure Visibility Wind Dir Wind Speed Gust Speed Precip Events Conditions
12:53 AM 18.0 °F - 14.0 °F 84% 30.33 in 5.0 mi Calm Calm - N/A   Clear
1:53 AM 17.1 °F - 12.9 °F 84% 30.32 in 5.0 mi Calm Calm - N/A   Clear
2:53 AM 17.1 °F - 14.0 °F 88% 30.32 in 6.0 mi Calm Calm - N/A   Clear
3:53 AM 14.0 °F - 10.9 °F 88% 30.31 in 6.0 mi Calm Calm - N/A   Clear
4:53 AM 12.9 °F - 10.0 °F 88% 30.30 in 6.0 mi Calm Calm - N/A   Clear
5:53 AM 17.6 °F - 14.0 °F 86% 30.24 in 5.0 mi Calm Calm - N/A   Clear
6:53 AM 17.1 °F - 14.0 °F 88% 30.28 in 5.0 mi Calm Calm - N/A   Clear
7:53 AM 14.0 °F - 10.0 °F 84% 30.29 in 4.0 mi Calm Calm - N/A   Clear
8:14 AM 15.8 °F - 12.2 °F 86% 30.25 in 3.0 mi Calm Calm - N/A   Scattered Clouds
8:53 AM 21.9 °F 15.7 °F 19.0 °F 89% 30.29 in 4.0 mi South 4.6 mph - N/A   Clear
9:53 AM 26.1 °F 19.4 °F 21.9 °F 84% 30.29 in 6.0 mi SSW 5.8 mph - N/A   Clear
10:53 AM 30.0 °F 20.5 °F 24.1 °F 79% 30.29 in 8.0 mi SSW 11.5 mph - N/A   Clear
11:53 AM 33.1 °F 24.4 °F 26.1 °F 75% 30.27 in 10.0 mi SW 11.5 mph - N/A   Clear
12:53 PM 35.1 °F 26.9 °F 25.0 °F 67% 30.23 in 10.0 mi West 11.5 mph - N/A   Clear
1:53 PM 37.0 °F 29.8 °F 24.1 °F 59% 30.20 in 10.0 mi WSW 10.4 mph - N/A   Clear
2:53 PM 37.9 °F 32.1 °F 25.0 °F 60% 30.20 in 10.0 mi West 8.1 mph - N/A   Clear
3:53 PM 37.9 °F 30.9 °F 25.0 °F 60% 30.23 in 10.0 mi WNW 10.4 mph - N/A   Clear
4:53 PM 37.0 °F 34.5 °F 26.1 °F 65% 30.23 in 10.0 mi West 3.5 mph - N/A   Scattered Clouds
5:53 PM 35.1 °F 30.1 °F 26.1 °F 70% 30.26 in 10.0 mi NW 5.8 mph - N/A   Clear
6:53 PM 32.0 °F 26.4 °F 25.0 °F 75% 30.28 in 10.0 mi NNW 5.8 mph - N/A   Clear
7:53 PM 28.9 °F 25.2 °F 24.1 °F 82% 30.31 in 10.0 mi WNW 3.5 mph - N/A   Clear
8:53 PM 28.9 °F - 24.1 °F 82% 30.32 in 10.0 mi Calm Calm - N/A   Clear
9:53 PM 23.0 °F - 19.9 °F 88% 30.34 in 10.0 mi Calm Calm - N/A   Clear
10:53 PM 25.0 °F - 21.0 °F 85% 30.34 in 10.0 mi Calm Calm - N/A   Clear
11:53 PM 24.1 °F - 21.9 °F 91% 30.33 in 8.0 mi Calm Calm - N/A   Clear